Location: Atherton
(17.2661°S, 145.4859°E)
Time: 00:45:28
(UTC+10:00)

A-11 Canister half - Visible Passes

Search period start: 24 June 2025 00:00
Search period end: 04 July 2025 00:00
Orbit: 1515 x 1684 km, 47.2° (Epoch: 22 June)

Date Brightness Start Highest point End Pass type
(mag) Time Alt. Az. Time Alt. Az. Time Alt. Az.
28 Jun 11.1 21:34:49 10° N 21:35:04 11° N 21:35:04 11° N visible
29 Jun 10.7 06:06:31 10° S 06:12:25 17° SSE 06:18:24 10° ESE visible
29 Jun 10.8 21:12:06 10° N 21:13:27 14° N 21:13:27 14° N visible
30 Jun 10.8 05:43:44 10° S 05:49:13 16° SSE 05:54:46 10° ESE visible
30 Jun 10.6 20:49:27 10° N 20:51:54 17° NNE 20:51:54 17° NNE visible
01 Jul 10.8 05:20:57 10° S 05:26:00 15° SSE 05:31:06 10° ESE visible
01 Jul 10.5 20:26:50 10° N 20:30:22 18° NNE 20:30:22 18° NNE visible
02 Jul 10.8 04:58:12 10° S 05:02:46 14° SSE 05:07:22 10° SE visible
02 Jul 10.3 20:04:17 10° N 20:08:54 19° NE 20:08:54 19° NE visible
02 Jul 10.9 22:05:34 10° NW 22:07:07 16° NW 22:07:07 16° NW visible
03 Jul 10.8 04:35:30 10° S 04:39:32 13° SSE 04:43:36 10° SE visible
03 Jul 10.3 19:41:48 10° NNE 19:47:28 18° NE 19:47:28 18° NE visible
03 Jul 10.5 21:42:31 10° NW 21:45:41 24° NW 21:45:41 24° NW visible
